Weather History for KTRM - October, 2013

Change the Weather History Date:

Sunday, October 20, 2013

  Actual Average Record
Temperature  
Mean Temperature 71 °F 72 °F  
Max Temperature 93 °F 89 °F 107 °F (2003)
Min Temperature 48 °F 54 °F 40 °F (1999)
Degree Days  
Heating Degree Days 0 0  
Month to date heating degree days 5 0  
Since 1 July heating degree days 5 0  
Cooling Degree Days 6 7  
Month to date cooling degree days 109 199  
Year to date cooling degree days 4005 3597  
Growing Degree Days 20 (Base 50)    
Moisture  
Dew Point 34 °F    
Average Humidity 35    
Maximum Humidity 61    
Minimum Humidity 9    
Precipitation  
Precipitation 0.00 in 0.01 in 0.12 in (2010)
Month to date precipitation T 0.15  
Year to date precipitation 1.83 2.54  
Since 1 July precipitation 1.39 0.72  
Snow  
Snow 0.00 in - - ()
Month to date snowfall 0.0  
Year to date snowfall 0.0  
Since 1 July snowfall 0.0  
Snow Depth 0.00 in    
Sea Level Pressure  
Sea Level Pressure 29.83 in    
Wind  
Wind Speed 4 mph (NNW)    
Max Wind Speed 9 mph    
Max Gust Speed 13 mph    
Visibility 10 miles    
Events      
T = Trace of Precipitation, MM = Missing Value Source: NWS Daily Summary

Daily Weather History Graph

Daily Weather History Graph

Search for Another Location

Airport or City:

Trip Planner

Search our weather history database for the weather conditions in past years. The results will help you decide how hot, cold, wet, or windy it might be!

Date:

Astronomy

Oct. 20, 2013 Rise Set
Actual Time 6:53 AM PDT 6:04 PM PDT
Civil Twilight 6:28 AM PDT 6:29 PM PDT
Nautical Twilight 5:59 AM PDT 6:58 PM PDT
Astronomical Twilight 5:30 AM PDT 7:27 PM PDT
Moon 7:22 PM PDT (10/20) 8:30 AM PDT (10/20)
Length of Visible Light 12h 01m
Length of Day
11h 10m
Waning Gibbous, 97% of the Moon is Illuminated
Oct 20
Waning Gibbous
Oct 26
Last Quarter
Nov 3
New
Nov 9
First Quarter
Nov 17
Full

Hourly Weather History & Observations

Time (PDT) Temp. Dew Point Humidity Pressure Visibility Wind Dir Wind Speed Gust Speed Precip Events Conditions
12:52 AM 55.0 °F 39.0 °F 55% 29.89 in 10.0 mi Calm Calm - N/A   Clear
1:52 AM 55.0 °F 37.0 °F 51% 29.89 in 10.0 mi North 3.5 mph - N/A   Clear
5:52 AM 50.0 °F 35.1 °F 57% 29.88 in 10.0 mi Calm Calm - N/A   Clear
6:52 AM 48.9 °F 35.1 °F 59% 29.87 in 10.0 mi West 4.6 mph - N/A   Clear
7:52 AM 55.0 °F 37.9 °F 53% 29.88 in 10.0 mi North 3.5 mph - N/A   Clear
8:52 AM 70.0 °F 33.1 °F 26% 29.89 in 10.0 mi Calm Calm - N/A   Clear
9:52 AM 79.0 °F 30.0 °F 17% 29.88 in 10.0 mi NNW 3.5 mph - N/A   Clear
10:52 AM 84.0 °F 30.9 °F 15% 29.87 in 10.0 mi WNW 4.6 mph - N/A   Clear
11:52 AM 87.1 °F 28.0 °F 12% 29.86 in 10.0 mi Calm Calm - N/A   Clear
12:52 PM 91.9 °F 26.1 °F 9% 29.83 in 10.0 mi Variable 4.6 mph - N/A   Clear
1:52 PM 91.9 °F 34.0 °F 13% 29.80 in 10.0 mi SSE 6.9 mph - N/A   Clear
2:52 PM 91.9 °F 28.9 °F 11% 29.81 in 10.0 mi SE 6.9 mph - N/A   Clear
3:52 PM 91.9 °F 25.0 °F 9% 29.77 in 10.0 mi SE 5.8 mph - N/A   Clear
4:52 PM 89.1 °F 30.0 °F 12% 29.76 in 10.0 mi SE 5.8 mph - N/A   Clear
5:52 PM 80.1 °F 33.1 °F 18% 29.76 in 10.0 mi SSE 4.6 mph - N/A   Clear
6:52 PM 69.1 °F 37.9 °F 32% 29.77 in 10.0 mi Calm Calm - N/A   Clear
7:52 PM 64.0 °F 39.9 °F 41% 29.79 in 10.0 mi NW 3.5 mph - N/A   Clear
8:52 PM 63.0 °F 39.9 °F 43% 29.80 in 10.0 mi Calm Calm - N/A   Clear
9:52 PM 60.1 °F 39.9 °F 47% 29.81 in 10.0 mi NNE 3.5 mph - N/A   Clear
10:52 PM 62.1 °F 39.9 °F 44% 29.82 in 10.0 mi NNW 5.8 mph - N/A   Clear
11:52 PM 70.0 °F 41.0 °F 35% 29.82 in 10.0 mi NNW 5.8 mph - N/A   Clear